Wind_Speed
17 17 17 17 16 16 15 15 14 13 12 11 10 8 7 6 5 3 3 2 3 3 5 6 7 8 9 10 11 12 13 14 16 16 16 17 17 17 18 20 21 22
18 18 18 18 17 17 17 17 16 15 13 12 11 10 9 8 6 4 3 1 0 1 3 4 5 6 7 8 10 11 12 13 14 15 15 16 16 16 16 17 18 20
18 19 19 19 19 19 19 18 17 16 15 14 13 12 11 9 8 6 5 4 3 2 2 3 4 6 6 7 9 10 11 12 13 13 14 15 15 15 15 15 15 17
20 19 19 20 20 20 20 19 19 18 17 16 15 14 13 11 10 8 7 6 5 5 4 4 5 6 7 7 8 9 10 11 12 13 13 14 14 14 14 14 14 14
22 21 21 21 21 21 20 20 20 19 19 18 17 16 14 13 12 10 9 9 8 7 7 7 7 7 8 9 9 10 11 12 12 13 13 13 14 14 14 14 13 13
22 23 23 22 22 21 21 21 21 21 20 20 19 17 16 15 14 13 12 12 11 10 10 9 9 9 9 10 11 11 12 13 13 13 14 14 14 14 14 14 13 13
21 22 24 24 24 23 22 22 22 21 22 21 20 19 18 17 17 16 15 14 14 13 12 12 12 12 12 12 13 13 14 14 14 15 15 15 15 14 14 14 14 13
19 22 23 24 25 25 25 24 23 23 23 23 22 21 20 19 19 18 17 17 16 16 15 15 14 14 14 15 15 15 16 16 16 16 16 16 16 16 15 15 15 14
19 21 22 23 23 23 25 26 25 25 25 24 24 24 23 22 21 21 20 19 19 19 18 18 18 17 17 17 18 18 18 18 18 18 18 18 17 16 16 16 16 16
19 19 20 21 21 21 22 25 26 27 26 26 26 26 25 25 24 23 23 22 22 22 22 22 21 21 20 20 20 21 21 20 20 20 20 19 18 18 17 17 17 17
18 19 19 20 20 20 20 22 24 26 26 26 27 27 27 27 26 25 25 25 24 24 25 25 25 24 24 23 23 23 23 23 22 22 21 21 20 19 18 17 17 17
15 17 18 19 20 20 20 21 22 24 25 25 26 26 27 28 28 27 27 27 27 27 27 27 27 27 26 26 26 26 26 25 24 24 23 22 21 21 20 19 18 18
14 14 16 18 19 20 20 20 21 22 23 23 24 25 26 27 28 28 28 28 29 29 29 29 29 29 29 28 28 28 28 27 26 25 24 23 22 21 21 20 19 19
15 15 15 16 17 19 20 20 20 20 21 21 22 23 24 25 26 27 27 28 29 30 30 31 31 30 30 30 29 30 29 28 27 26 25 25 23 22 21 21 20 20
18 17 16 16 16 17 18 19 19 19 19 20 21 22 22 23 24 25 26 27 28 29 29 30 31 30 30 30 29 30 30 29 28 27 26 26 25 24 23 22 21 21
20 19 18 17 16 16 17 18 18 19 18 18 20 21 22 22 23 24 25 25 26 27 27 28 28 29 29 29 29 29 29 29 28 27 27 27 26 25 24 24 23 23
23 22 20 19 18 17 16 17 18 18 18 17 17 18 20 21 22 23 24 24 25 26 27 26 26 27 27 28 28 27 28 28 28 28 28 27 27 27 26 25 25 24
26 24 22 21 20 19 18 17 17 17 18 18 17 16 17 19 21 22 23 23 24 26 27 26 26 26 27 27 27 27 27 27 28 28 28 28 27 27 27 26 26 26
29 27 25 23 22 20 19 19 18 17 17 17 17 17 17 17 18 19 21 22 24 25 26 26 26 27 27 28 28 28 27 28 28 28 29 28 28 27 27 27 27 27
32 30 27 25 23 22 21 20 18 17 17 17 18 18 18 17 16 16 18 20 21 22 24 25 25 26 27 28 28 28 28 29 29 30 30 30 29 28 28 28 28 28
32 30 28 25 24 23 22 21 20 19 18 18 18 19 19 19 17 16 16 17 19 20 21 23 23 24 26 27 28 28 29 29 30 31 32 32 31 30 29 29 30 30
32 30 27 26 24 24 23 22 21 20 20 19 19 20 20 21 20 18 16 16 17 18 19 20 21 22 23 25 26 27 28 29 30 31 32 32 32 31 30 29 29 30
33 30 27 26 25 25 24 23 22 22 21 21 21 21 21 22 22 21 19 18 17 18 18 18 19 20 21 22 23 25 27 28 29 30 31 32 32 32 31 29 27 27
33 30 27 27 27 26 26 25 24 24 23 23 22 22 22 23 23 23 22 20 19 18 18 18 18 18 19 20 20 22 25 27 28 29 30 31 32 32 32 30 28 27
32 30 28 28 28 28 27 27 26 26 25 25 25 24 23 23 24 25 24 23 21 19 19 18 18 18 19 19 19 20 22 24 26 27 28 29 30 30 31 31 31 31
33 30 29 30 31 30 29 29 28 28 28 28 27 26 25 25 25 26 26 25 23 22 20 19 19 19 20 20 19 19 20 22 24 26 27 27 28 29 30 31 32 33
Wind_Direction
227 222 216 213 210 208 207 202 199 196 194 194 194 194 193 190 185 170 143 110 73 52 38 34 33 33 33 33 32 31 30 31 32 32 33 35 36 36 34 32 31 31
225 224 221 218 215 214 213 211 208 206 204 204 205 205 205 205 205 201 194 193 276 15 17 15 14 17 20 22 22 22 23 26 27 27 27 29 32 33 32 30 29 29
222 223 223 221 220 218 217 217 216 215 215 215 215 214 215 216 218 220 225 236 257 286 320 342 349 354 1 7 10 12 13 16 19 20 20 22 25 27 27 27 26 25
228 225 223 223 224 223 221 221 222 223 224 225 225 224 224 225 227 231 238 247 259 275 292 309 322 331 340 348 355 359 1 4 8 10 11 12 15 18 21 21 21 21
234 232 230 228 227 227 226 224 225 228 232 235 235 235 236 235 236 239 244 253 261 271 283 294 304 314 322 330 337 344 348 352 355 358 -0 2 4 7 11 13 15 14
236 237 238 237 236 234 232 229 229 231 235 240 242 244 245 246 246 248 250 256 263 270 279 288 295 303 310 317 323 330 335 340 344 346 349 351 353 356 359 2 5 6
234 238 240 242 243 243 241 238 237 236 238 241 245 248 250 252 254 256 258 263 267 273 279 285 291 297 302 308 313 319 324 328 332 335 338 342 344 346 349 351 354 356
230 238 240 241 243 245 247 248 247 245 244 245 248 250 253 255 258 261 264 268 272 276 280 284 288 293 297 301 306 311 316 320 323 327 330 333 336 338 340 342 344 346
221 233 240 243 243 244 246 249 251 251 251 252 252 254 256 257 260 263 268 272 275 278 281 284 287 290 294 297 301 305 309 313 316 319 322 325 328 330 333 335 336 338
213 223 234 243 246 246 247 248 251 253 254 255 256 258 260 262 263 265 268 272 276 279 282 284 286 289 291 294 298 301 304 307 310 313 316 318 321 323 326 328 330 331
214 217 225 235 243 247 247 248 250 253 255 257 258 260 262 265 267 268 270 272 274 277 280 283 286 288 290 293 296 298 301 303 305 308 310 312 315 318 320 322 324 325
223 221 223 229 236 242 245 246 248 251 254 256 259 261 264 267 270 272 273 274 275 276 279 281 284 286 289 291 293 296 298 300 303 305 307 308 311 314 316 318 319 320
239 233 230 231 235 239 243 245 246 247 250 253 257 260 263 267 271 275 277 277 278 278 279 281 283 286 289 291 293 294 296 299 301 303 304 306 308 311 313 315 316 317
246 243 241 241 242 243 246 249 250 250 250 251 253 256 260 265 269 273 276 278 279 281 281 282 284 286 288 291 293 294 296 298 300 302 303 304 307 309 311 313 314 315
245 246 245 246 248 251 254 256 258 258 255 252 252 253 256 260 264 269 272 275 278 280 281 282 284 286 288 290 292 294 296 298 300 301 302 303 305 308 309 311 312 312
245 246 246 247 248 252 258 262 265 267 265 261 257 254 255 256 259 263 267 270 274 277 279 280 282 285 287 289 291 293 295 297 299 300 302 303 305 307 308 309 310 310
247 247 248 248 248 249 254 260 266 271 274 275 269 262 258 256 257 259 263 266 270 273 275 277 279 281 284 286 288 291 293 295 297 298 300 301 303 305 307 308 309 309
247 247 248 250 250 250 251 255 261 268 276 282 282 277 268 262 260 262 263 265 267 270 274 277 278 279 280 282 285 288 290 292 294 295 297 299 300 303 305 307 308 308
245 246 247 249 251 252 253 254 258 264 272 279 284 284 280 274 269 267 268 269 271 273 276 279 280 280 281 282 284 287 289 290 292 293 295 296 298 301 303 305 306 307
241 244 246 249 252 254 256 258 260 263 268 273 279 282 284 284 281 275 273 275 277 279 281 283 285 284 284 285 286 287 289 290 291 292 293 294 297 299 301 304 305 306
241 244 246 249 253 256 259 261 262 263 266 270 275 279 283 286 287 284 282 282 284 287 287 289 292 292 290 289 289 289 289 289 289 290 291 293 295 297 300 304 306 306
244 247 249 251 256 260 262 264 265 265 267 269 272 277 282 285 288 290 290 288 289 290 291 295 300 301 298 296 294 292 291 289 289 290 291 292 293 295 298 302 305 306
244 249 253 255 259 263 265 267 267 267 268 269 271 275 279 283 287 290 291 291 291 293 296 300 303 305 305 304 301 297 294 293 293 292 292 291 291 291 293 297 302 305
243 248 254 257 260 263 265 267 268 267 268 269 271 273 276 280 284 287 289 291 292 293 297 300 301 303 304 306 305 302 298 296 296 296 294 293 291 290 290 291 296 300
243 247 253 258 260 261 263 265 266 268 268 268 269 271 273 276 279 283 285 287 290 292 293 294 296 298 299 301 304 303 300 298 298 297 296 296 295 293 291 289 289 290
241 246 253 258 260 259 259 261 263 265 266 267 267 269 271 273 275 278 281 283 286 287 287 288 288 290 292 296 299 300 299 298 297 296 297 300 300 297 294 290 287 286
Height
11024 11025 11025 11026 11026 11026 11026 11026 11026 11026 11026 11027 11027 11028 11028 11028 11029 11029 11029 11029 11029 11029 11029 11029 11028 11028 11028 11028 11027 11026 11025 11024 11023 11022 11021 11020 11020 11019 11017 11016 11015 11013
11022 11024 11025 11025 11026 11026 11026 11026 11026 11026 11026 11027 11027 11027 11028 11028 11028 11029 11029 11029 11029 11029 11029 11029 11029 11028 11028 11028 11027 11027 11026 11025 11024 11023 11022 11021 11021 11020 11019 11018 11016 11014
11020 11022 11024 11024 11025 11025 11026 11026 11026 11026 11026 11026 11027 11027 11028 11028 11028 11028 11029 11029 11029 11029 11029 11029 11028 11028 11028 11028 11027 11027 11026 11025 11024 11024 11023 11022 11021 11020 11019 11018 11017 11016
11018 11020 11021 11023 11023 11024 11025 11025 11026 11026 11026 11026 11026 11027 11027 11027 11028 11028 11028 11028 11028 11028 11028 11028 11028 11028 11028 11027 11027 11027 11026 11025 11025 11024 11023 11022 11022 11021 11020 11019 11018 11017
11016 11018 11019 11020 11021 11022 11024 11024 11025 11025 11025 11026 11026 11026 11026 11027 11027 11027 11027 11027 11027 11027 11027 11027 11027 11027 11027 11027 11027 11027 11026 11025 11025 11024 11023 11023 11022 11021 11020 11019 11019 11017
11013 11016 11017 11019 11019 11021 11022 11023 11024 11024 11024 11025 11025 11026 11026 11026 11026 11027 11027 11027 11027 11027 11027 11027 11027 11026 11026 11026 11026 11026 11026 11025 11025 11024 11024 11023 11022 11021 11020 11020 11019 11018
11010 11012 11015 11016 11018 11019 11020 11021 11022 11023 11023 11023 11024 11025 11025 11025 11026 11026 11026 11026 11026 11026 11026 11026 11026 11025 11025 11025 11025 11025 11025 11025 11025 11024 11023 11023 11022 11021 11020 11019 11019 11018
11008 11009 11011 11013 11015 11017 11019 11019 11021 11021 11022 11022 11023 11023 11024 11024 11025 11025 11025 11026 11025 11025 11025 11025 11025 11025 11024 11024 11024 11024 11024 11024 11024 11024 11023 11022 11022 11021 11020 11019 11018 11018
11004 11006 11007 11009 11012 11014 11016 11017 11019 11020 11020 11021 11021 11022 11022 11023 11023 11024 11024 11024 11024 11024 11024 11023 11024 11024 11024 11023 11023 11023 11023 11023 11023 11023 11022 11022 11021 11020 11019 11019 11018 11017
11001 11003 11005 11006 11008 11011 11013 11014 11016 11017 11018 11019 11020 11020 11020 11021 11022 11022 11022 11023 11023 11022 11022 11022 11022 11022 11022 11022 11022 11022 11022 11022 11022 11021 11021 11021 11020 11020 11019 11018 11017 11017
10999 11000 11002 11004 11005 11007 11009 11011 11012 11013 11015 11016 11018 11018 11019 11019 11020 11020 11021 11021 11021 11021 11020 11020 11020 11021 11021 11021 11021 11021 11021 11020 11020 11020 11020 11020 11019 11019 11019 11018 11017 11016
10998 10998 10999 11001 11002 11004 11006 11007 11008 11010 11011 11013 11014 11016 11017 11017 11017 11018 11019 11019 11019 11019 11018 11018 11018 11018 11019 11019 11019 11019 11019 11019 11019 11019 11019 11018 11018 11018 11018 11017 11016 11016
10997 10997 10998 10998 11000 11001 11002 11004 11005 11006 11008 11009 11011 11012 11013 11014 11015 11016 11017 11017 11017 11017 11017 11016 11016 11016 11016 11017 11017 11016 11017 11017 11017 11017 11017 11017 11017 11017 11017 11016 11015 11015
10995 10996 10997 10997 10998 10998 11000 11001 11002 11003 11005 11006 11008 11009 11010 11011 11012 11013 11014 11014 11014 11014 11015 11014 11014 11014 11014 11015 11015 11014 11014 11015 11015 11015 11015 11015 11015 11015 11015 11015 11014 11013
10993 10994 10995 10996 10996 10997 10998 10999 11000 11001 11002 11004 11005 11006 11007 11009 11009 11010 11010 11011 11011 11012 11012 11012 11012 11012 11012 11013 11013 11012 11012 11013 11013 11013 11013 11013 11013 11013 11013 11013 11013 11012
10991 10992 10993 10994 10994 10995 10996 10997 10998 10999 11000 11001 11003 11004 11005 11006 11007 11007 11007 11008 11008 11009 11009 11010 11010 11010 11010 11010 11011 11011 11010 11010 11011 11011 11011 11011 11011 11011 11011 11011 11011 11010
10989 10990 10991 10991 10992 10993 10994 10995 10996 10997 10998 10999 11001 11002 11004 11004 11005 11005 11005 11006 11006 11006 11006 11007 11008 11008 11008 11008 11008 11008 11008 11008 11008 11008 11009 11009 11009 11009 11009 11009 11009 11009
10986 10988 10988 10989 10990 10991 10992 10993 10994 10995 10996 10998 10999 11000 11002 11003 11003 11003 11003 11003 11003 11003 11003 11004 11005 11006 11006 11006 11006 11006 11006 11006 11006 11006 11006 11006 11006 11007 11007 11007 11007 11007
10983 10985 10986 10986 10987 10988 10989 10990 10991 10993 10995 10996 10997 10998 10999 11001 11001 11002 11002 11001 11002 11001 11001 11002 11003 11003 11004 11004 11004 11004 11004 11004 11004 11003 11003 11003 11003 11004 11004 11004 11004 11004
10979 10981 10982 10984 10985 10986 10987 10988 10989 10991 10992 10994 10995 10996 10997 10998 11000 11000 11000 11000 11000 11000 10999 11000 11000 11001 11001 11001 11002 11002 11002 11002 11001 11000 11000 11000 11000 11001 11001 11001 11001 11001
10975 10977 10979 10981 10983 10984 10985 10986 10987 10988 10990 10991 10992 10993 10994 10996 10997 10998 10998 10998 10998 10998 10998 10997 10997 10998 10998 10998 10999 10999 10999 10999 10998 10998 10997 10997 10998 10998 10998 10998 10998 10997
10972 10974 10976 10979 10980 10982 10983 10984 10985 10986 10987 10988 10989 10990 10991 10992 10993 10995 10996 10996 10996 10995 10995 10995 10995 10995 10995 10995 10996 10996 10996 10996 10995 10995 10995 10994 10994 10995 10996 10996 10995 10994
10970 10972 10974 10976 10978 10979 10980 10982 10982 10983 10984 10985 10986 10987 10988 10989 10990 10991 10992 10994 10994 10993 10993 10993 10993 10993 10993 10992 10992 10993 10992 10992 10992 10992 10991 10991 10991 10992 10992 10993 10992 10991
10968 10969 10971 10973 10975 10976 10977 10979 10980 10980 10981 10981 10983 10984 10985 10985 10986 10987 10988 10990 10991 10991 10990 10990 10990 10990 10990 10989 10989 10989 10989 10988 10988 10988 10987 10987 10987 10988 10988 10989 10989 10988
10964 10966 10968 10969 10971 10972 10974 10975 10976 10977 10977 10978 10979 10980 10981 10982 10983 10983 10984 10985 10986 10988 10988 10987 10987 10987 10987 10986 10986 10986 10985 10984 10984 10984 10983 10983 10983 10984 10984 10985 10985 10984
10960 10962 10964 10965 10967 10968 10970 10971 10972 10973 10973 10974 10975 10976 10978 10979 10979 10979 10980 10981 10982 10983 10984 10984 10984 10983 10983 10983 10983 10982 10981 10981 10980 10979 10978 10978 10979 10979 10979 10980 10980 10980